sat.trackr.live / text

‹ back to catalog

STARLINK-31978

NORAD 60016 · 2024-111A

PAYLOAD ACTIVE UNKNOWN

§ Identity

Operator
Country
US
Launch date
2024-06-08
Launch site
AFETR
Launch vehicle
Mass (kg)
RCS (m²)

Purposes: comms

External: N2YO · Heavens-Above · Gunter

§ Orbital elements

Epoch: 2026-09-21T07:52:18.974496Z

Period
94.01 min
Inclination
53.1595°
Eccentricity
0.0001304
Mean motion
15.31699322 rev/d
Perigee alt
469.8 km
Apogee alt
471.6 km
Semi-major
6,848.9 km
B*
1.0256e-5
RAAN
245.7019°
Arg perigee
88.9937°
Mean anomaly
271.1213°
Rev number
12,890

§ Raw data

STARLINK-319781 60016U 24111A   26264.32799739 -.00000047  00000+0  10256-4 0  99902 60016  53.1595 245.7019 0001304  88.9937 271.1213 15.31699322128901

JSON: /api/v1/satellites/60016 · /tle

For live sub-satellite position, see the globe view (requires WebGL).

§ Visibility from observer

Set your observer location to see the next 7 days of passes ≥ 10°. The values pass through the URL so the page stays shareable.

No JS? Fill the form by hand. The geolocation button needs JavaScript.